Simultaneous Nadir Overpasses (SNOs) Predictions

Prediction of SNOs between AQUA and METOP-B Satellite Orbit:

Table of predicted SNOs for the next 14.0 days since TLE Epoch: 7/26/2018
Index Date (AQUA) Time (AQUA) Lat,Lon (AQUA) SZA (AQUA ) Date (METOP-B) Time (METOP-B) Lat,Lon (METOP-B) SZA (METOP-B ) Distance(km) Time Diff (sec)
1 07/28/2018 20:46:57 -73.97, 42.28 124.79 07/28/2018 20:46:23 -73.97, 42.35 124.79 2.25 34
2 07/28/2018 21:36:25 74.03,-150.20 55.27 07/28/2018 21:37:02 74.02,-150.18 55.27 0.44 37
3 07/31/2018 16:21:16 -73.95, 108.75 124.14 07/31/2018 16:20:42 -73.96, 108.73 124.13 1.14 34
4 07/31/2018 17:10:44 74.00, -83.72 55.93 07/31/2018 17:11:21 74.00, -83.82 55.93 3.05 37
5 08/03/2018 11:55:37 -73.98, 175.10 123.39 08/03/2018 11:55:01 -73.99, 175.22 123.38 3.74 36
6 08/03/2018 12:45:05 74.03, -17.38 56.68 08/03/2018 12:45:40 74.03, -17.34 56.67 1.09 35
7 08/06/2018 07:29:57 -73.96,-118.45 122.66 08/06/2018 07:29:21 -73.97,-118.42 122.64 1.34 36
8 08/06/2018 08:19:25 74.01, 49.08 57.41 08/06/2018 08:20:00 74.01, 49.01 57.41 2.14 35
9 08/09/2018 03:04:16 -73.95, -52.00 121.88 08/09/2018 03:03:40 -73.95, -52.06 121.87 1.68 36
10 08/09/2018 03:53:45 74.05, 115.41 58.24 08/09/2018 03:54:18 74.03, 115.48 58.22 2.75 33




NCC Satellite Simultaneous Nadir Overpasses (SNOs) Prediction Service
